Meridian, MS

9:49 AM CDT on September 25, 2017 (GMT -0500)
Key

Weather History for KMEI - March, 2013

Change the Weather History Date:

Sunday, March 31, 2013

  Actual Average Record
Temperature  
Mean Temperature 62 °F 59 °F  
Max Temperature 70 °F 73 °F 90 °F (1974)
Min Temperature 53 °F 45 °F 28 °F (2003)
Degree Days  
Heating Degree Days 3 7  
Month to date heating degree days 434 307  
Since 1 July heating degree days 2321 2404  
Cooling Degree Days 0 1  
Month to date cooling degree days 3 17  
Year to date cooling degree days 19 24  
Growing Degree Days 12 (Base 50)    
Moisture  
Dew Point 58 °F    
Average Humidity 81    
Maximum Humidity 100    
Minimum Humidity 61    
Precipitation  
Precipitation 0.38 in 0.17 in 3.50 in (1962)
Month to date precipitation 3.75 5.42  
Year to date precipitation 22.58 16.15  
Sea Level Pressure  
Sea Level Pressure 29.95 in    
Wind  
Wind Speed 6 mph (SSW)    
Max Wind Speed 14 mph    
Max Gust Speed 20 mph    
Visibility 7 miles    
Events Rain , Thunderstorm    
T = Trace of Precipitation, MM = Missing Value Source: NWS Daily Summary

Daily Weather History Graph

Daily Weather History Graph

Search for Another Location

Airport or City:

Trip Planner

Search our weather history database for the weather conditions in past years. The results will help you decide how hot, cold, wet, or windy it might be!

Date:

Astronomy

Mar. 31, 2013 Rise Set
Actual Time 6:44 AM CDT 7:14 PM CDT
Civil Twilight 6:19 AM CDT 7:39 PM CDT
Nautical Twilight 5:50 AM CDT 8:08 PM CDT
Astronomical Twilight 5:21 AM CDT 8:37 PM CDT
Moon No Moon Rise 9:46 AM CDT (3/31)
Length of Visible Light 13h 19m
Length of Day
12h 30m
Waning Gibbous, 77% of the Moon is Illuminated
Mar 31
Waning Gibbous
Apr 2
Last Quarter
Apr 10
New
Apr 18
First Quarter
Apr 25
Full

Hourly Weather History & Observations

Time (CDT) Temp. Dew Point Humidity Pressure Visibility Wind Dir Wind Speed Gust Speed Precip Events Conditions
12:58 AM 55.9 °F 55.0 °F 97% 30.02 in 10.0 mi South 6.9 mph - N/A   Clear
1:58 AM 55.9 °F 54.0 °F 93% 30.01 in 10.0 mi SSW 6.9 mph - N/A   Clear
2:58 AM 55.0 °F 54.0 °F 96% 30.00 in 7.0 mi SSW 6.9 mph - N/A   Clear
3:58 AM 54.0 °F 54.0 °F 100% 29.98 in 6.0 mi SSW 8.1 mph - N/A   Partly Cloudy
4:58 AM 54.0 °F 54.0 °F 100% 29.98 in 5.0 mi SSW 6.9 mph - N/A   Clear
5:58 AM 53.1 °F 53.1 °F 100% 29.99 in 3.0 mi Calm Calm - N/A   Clear
6:58 AM 54.0 °F 54.0 °F 100% 29.99 in 4.0 mi South 4.6 mph - N/A   Overcast
7:58 AM 57.9 °F 57.0 °F 97% 30.02 in 5.0 mi North 5.8 mph - N/A   Overcast
8:58 AM 59.0 °F 57.9 °F 96% 30.03 in 5.0 mi Calm Calm - N/A   Overcast
9:13 AM 60.8 °F 59.0 °F 94% 30.03 in 6.0 mi SSE 3.5 mph - N/A   Overcast
9:58 AM 63.0 °F 59.0 °F 87% 30.02 in 8.0 mi South 4.6 mph - N/A   Overcast
10:08 AM 62.6 °F 59.0 °F 88% 30.03 in 9.0 mi SSW 4.6 mph - N/A   Overcast
10:58 AM 66.0 °F 57.9 °F 75% 30.00 in 10.0 mi SSW 6.9 mph - N/A   Scattered Clouds
11:58 AM 69.1 °F 55.9 °F 63% 29.99 in 10.0 mi South 9.2 mph - N/A   Partly Cloudy
12:58 PM 66.9 °F 57.0 °F 70% 29.99 in 10.0 mi South 9.2 mph - N/A   Overcast
1:30 PM 69.8 °F 57.2 °F 64% 29.98 in 10.0 mi Variable 5.8 mph - N/A   Mostly Cloudy
1:58 PM 70.0 °F 57.9 °F 65% 29.97 in 10.0 mi South 8.1 mph - N/A   Mostly Cloudy
2:58 PM 69.1 °F 59.0 °F 70% 29.94 in 10.0 mi SSE 9.2 mph - 0.00 in   Overcast
3:51 PM 68.0 °F 59.0 °F 73% 29.91 in 10.0 mi South 6.9 mph - N/A Thunderstorm Overcast
3:58 PM 68.0 °F 59.0 °F 73% 29.91 in 10.0 mi SSW 5.8 mph - N/A Thunderstorm Overcast
4:29 PM 64.4 °F 60.8 °F 88% 29.92 in 2.0 mi WNW 6.9 mph - 0.11 in Rain , Thunderstorm Heavy Thunderstorms and Rain
4:58 PM 62.1 °F 61.0 °F 96% 29.92 in 2.0 mi SW 5.8 mph - 0.19 in Rain , Thunderstorm Thunderstorms and Rain
5:10 PM 62.6 °F 60.8 °F 94% 29.92 in 1.8 mi SW 6.9 mph - 0.06 in Rain , Thunderstorm Heavy Thunderstorms and Rain
5:28 PM 62.6 °F 60.8 °F 94% 29.90 in 2.5 mi West 5.8 mph - 0.15 in Rain Rain
5:36 PM 62.6 °F 60.8 °F 94% 29.90 in 4.0 mi Calm Calm - 0.16 in Rain Rain
5:40 PM 62.6 °F 60.8 °F 94% 29.90 in 2.5 mi Calm Calm - 0.17 in Rain Rain
5:53 PM 62.6 °F 60.8 °F 94% 29.86 in 7.0 mi NE 4.6 mph - 0.19 in Rain Light Rain
5:58 PM 62.1 °F 60.1 °F 93% 29.85 in 8.0 mi East 6.9 mph - 0.19 in Rain Light Rain
6:06 PM 62.6 °F 60.8 °F 94% 29.85 in 9.0 mi East 5.8 mph - 0.00 in Rain Light Rain
6:28 PM 60.8 °F 60.8 °F 100% 29.87 in 10.0 mi South 4.6 mph - 0.00 in   Mostly Cloudy
6:58 PM 61.0 °F 61.0 °F 100% 29.87 in 10.0 mi Calm Calm - 0.00 in   Scattered Clouds
7:12 PM 60.8 °F 60.8 °F 100% 29.87 in 10.0 mi South 4.6 mph - N/A   Mostly Cloudy
7:58 PM 59.0 °F 59.0 °F 100% 29.88 in 8.0 mi SSW 5.8 mph - N/A   Scattered Clouds
8:58 PM 57.9 °F 57.0 °F 97% 29.91 in 10.0 mi SW 4.6 mph - N/A   Clear
9:39 PM 55.4 °F 55.4 °F 100% 29.93 in 1.8 mi South 5.8 mph - N/A   Partly Cloudy
9:42 PM 55.4 °F 55.4 °F 100% 29.93 in 0.8 mi South 5.8 mph - N/A   Mist
9:53 PM 55.4 °F 55.4 °F 100% 29.94 in 1.2 mi SSW 6.9 mph - N/A   Partly Cloudy
9:58 PM 55.0 °F 55.0 °F 100% 29.94 in 2.5 mi SSW 5.8 mph - N/A   Partly Cloudy
10:07 PM 53.6 °F 53.6 °F 100% 29.94 in 1.5 mi SSW 5.8 mph - N/A   Partly Cloudy
10:18 PM 55.4 °F 55.4 °F 100% 29.94 in 2.0 mi SSW 5.8 mph - N/A   Mostly Cloudy
10:28 PM 55.4 °F 55.4 °F 100% 29.95 in 4.0 mi NW 5.8 mph - N/A   Mostly Cloudy
10:58 PM 57.9 °F 57.9 °F 100% 29.94 in 10.0 mi Calm Calm - N/A   Overcast
11:09 PM 57.2 °F 57.2 °F 100% 29.94 in 10.0 mi Calm Calm - N/A   Overcast
11:58 PM 57.9 °F 57.0 °F 97% 29.93 in 10.0 mi SSW 3.5 mph - N/A   Overcast